Location: Unspecified
(43.4354°N, 0.0000°E)
Time: 14:29:49
(UTC+00:00)

Transit 2A - Pass Details

Date: 20 June 2019
Orbit: 594 x 965 km, 66.7° (Epoch: 16 July)

Event Time Altitude Azimuth Distance (km) Brightness Sun altitude
Rises 10:17:50 0° 322° (NW) 3,425 9.1 60.8°
Reaches altitude 10° 10:20:33 10° 315° (NW) 2,425 8.4 61.2°
Maximum altitude 10:25:39 39° 249° (WSW) 1,138 7.3 61.9°
Drops below altitude 10° 10:30:15 10° 181° (S) 2,178 8.8 62.6°
Sets 10:32:35 0° 173° (S) 3,037 9.4 62.9°
